Test XHTML 1.0 Strict Page for WU-History Testing
Datos historicos para Xert
Diario Historicos para Junio 23, 2024 unidades:  Metrico    Imperiales   Ambos
« Anterior Dia
Proximo Dia »
Diario Semanal Mensual Anual Personalizado
  Max: Min: Promedio:
Temperatura: 26.0 °C 18.0 °C 21.3 °C
Punto de rocio: 17.0 °C 10.0 °C 13.9 °C
Humedad: 86% 51% 63%
Viento: 56km/h 0km/h 20.8km/h
Rafagas: 56km/h - -
Viento- - SW
Presion: 1020.0 hPa 1014.2 hPa -
Lluvia: 0.00 mm    
Historical Graphs
 
 
Observa nuestra WebCam, mapa de radar de tormentas para Europa y mapa del radar de nuvosidad

Weather Camera

Radar Tormentas

Radar Sat24

Radar Meteociel





Condiciones meteorologicas Actuales:

Datos tabulados para Junio 23, 2024
Hora Temperatura Punto Rocio Presion Viento Viento Rafagas Humedad Tasa lluvia (1 hora) solar Condiciones
00:00 20.0 °C 12.0 °C 1019.6 hPa WNW 5 km/h 23 km/h 59% 0.00 mm 0.00 W/m2 unknown
00:05 20.0 °C 12.0 °C 1019.6 hPa NW 21 km/h 21 km/h 59% 0.00 mm 0.00 W/m2 unknown
00:14 20.0 °C 12.0 °C 1020.0 hPa NW 10 km/h 21 km/h 58% 0.00 mm 0.00 W/m2 unknown
00:19 20.0 °C 12.0 °C 1019.6 hPa West 13 km/h 23 km/h 58% 0.00 mm 0.00 W/m2 unknown
00:24 20.0 °C 12.0 °C 1019.6 hPa West 31 km/h 31 km/h 58% 0.00 mm 0.00 W/m2 unknown
00:29 20.0 °C 12.0 °C 1019.6 hPa West 10 km/h 32 km/h 58% 0.00 mm 0.00 W/m2 unknown
00:34 20.0 °C 11.0 °C 1019.6 hPa WNW 19 km/h 32 km/h 58% 0.00 mm 0.00 W/m2 unknown
00:39 20.0 °C 11.0 °C 1020.0 hPa WNW 21 km/h 26 km/h 58% 0.00 mm 0.00 W/m2 unknown
00:44 20.0 °C 11.0 °C 1019.6 hPa SSW 8 km/h 23 km/h 58% 0.00 mm 0.00 W/m2 unknown
00:49 20.0 °C 11.0 °C 1019.6 hPa WSW 13 km/h 23 km/h 58% 0.00 mm 0.00 W/m2 unknown
00:54 20.0 °C 11.0 °C 1019.6 hPa West 8 km/h 14 km/h 58% 0.00 mm 0.00 W/m2 unknown
00:59 20.0 °C 11.0 °C 1019.6 hPa West 11 km/h 14 km/h 58% 0.00 mm 0.00 W/m2 unknown
01:04 20.0 °C 11.0 °C 1019.6 hPa NW 14 km/h 14 km/h 58% 0.00 mm 0.00 W/m2 unknown
01:09 20.0 °C 11.0 °C 1019.6 hPa NNW 16 km/h 23 km/h 56% 0.00 mm 0.00 W/m2 unknown
01:14 20.0 °C 11.0 °C 1019.6 hPa WSW 8 km/h 23 km/h 56% 0.00 mm 0.00 W/m2 unknown
01:19 20.0 °C 11.0 °C 1019.3 hPa WNW 11 km/h 23 km/h 57% 0.00 mm 0.00 W/m2 unknown
01:24 20.0 °C 11.0 °C 1019.3 hPa WNW 21 km/h 21 km/h 58% 0.00 mm 0.00 W/m2 unknown
01:29 19.0 °C 11.0 °C 1019.3 hPa WNW 21 km/h 32 km/h 58% 0.00 mm 0.00 W/m2 unknown
01:34 19.0 °C 11.0 °C 1019.3 hPa WNW 24 km/h 32 km/h 59% 0.00 mm 0.00 W/m2 unknown
01:39 19.0 °C 11.0 °C 1019.3 hPa WNW 14 km/h 27 km/h 59% 0.00 mm 0.00 W/m2 unknown
01:44 19.0 °C 11.0 °C 1019.3 hPa WNW 21 km/h 27 km/h 59% 0.00 mm 0.00 W/m2 unknown
01:49 19.0 °C 11.0 °C 1019.3 hPa WNW 14 km/h 27 km/h 59% 0.00 mm 0.00 W/m2 unknown
01:54 19.0 °C 11.0 °C 1019.0 hPa WNW 23 km/h 27 km/h 59% 0.00 mm 0.00 W/m2 unknown
01:59 19.0 °C 11.0 °C 1019.0 hPa West 16 km/h 23 km/h 58% 0.00 mm 0.00 W/m2 unknown
02:04 19.0 °C 11.0 °C 1019.0 hPa West 24 km/h 26 km/h 58% 0.00 mm 0.00 W/m2 unknown
02:09 19.0 °C 11.0 °C 1019.0 hPa WNW 29 km/h 31 km/h 58% 0.00 mm 0.00 W/m2 unknown
02:14 19.0 °C 11.0 °C 1018.6 hPa WNW 31 km/h 31 km/h 58% 0.00 mm 0.00 W/m2 unknown
02:19 19.0 °C 11.0 °C 1018.6 hPa WNW 19 km/h 31 km/h 58% 0.00 mm 0.00 W/m2 unknown
02:24 19.0 °C 11.0 °C 1018.6 hPa West 18 km/h 31 km/h 58% 0.00 mm 0.00 W/m2 unknown
02:29 19.0 °C 11.0 °C 1018.6 hPa WNW 16 km/h 21 km/h 58% 0.00 mm 0.00 W/m2 unknown
02:34 19.0 °C 10.0 °C 1018.6 hPa WNW 19 km/h 24 km/h 57% 0.00 mm 0.00 W/m2 unknown
02:39 19.0 °C 11.0 °C 1018.6 hPa West 23 km/h 23 km/h 57% 0.00 mm 0.00 W/m2 unknown
02:44 19.0 °C 11.0 °C 1018.6 hPa West 29 km/h 29 km/h 57% 0.00 mm 0.00 W/m2 unknown
02:49 19.0 °C 11.0 °C 1018.3 hPa West 24 km/h 29 km/h 57% 0.00 mm 0.00 W/m2 unknown
02:54 19.0 °C 11.0 °C 1018.3 hPa West 21 km/h 29 km/h 57% 0.00 mm 0.00 W/m2 unknown
02:59 19.0 °C 11.0 °C 1018.3 hPa WNW 23 km/h 24 km/h 57% 0.00 mm 0.00 W/m2 unknown
03:04 19.0 °C 11.0 °C 1018.0 hPa West 19 km/h 19 km/h 57% 0.00 mm 0.00 W/m2 unknown
03:09 19.0 °C 11.0 °C 1018.0 hPa WSW 18 km/h 24 km/h 58% 0.00 mm 0.00 W/m2 unknown
03:14 19.0 °C 11.0 °C 1017.6 hPa WNW 16 km/h 19 km/h 58% 0.00 mm 0.00 W/m2 unknown
03:18 19.0 °C 11.0 °C 1017.6 hPa NW 13 km/h 16 km/h 58% 0.00 mm 0.00 W/m2 unknown
03:24 19.0 °C 11.0 °C 1017.6 hPa WNW 21 km/h 21 km/h 58% 0.00 mm 0.00 W/m2 unknown
03:29 19.0 °C 11.0 °C 1017.6 hPa NW 19 km/h 21 km/h 58% 0.00 mm 0.00 W/m2 unknown
03:34 19.0 °C 11.0 °C 1017.6 hPa West 19 km/h 27 km/h 59% 0.00 mm 0.00 W/m2 unknown
03:39 19.0 °C 11.0 °C 1017.6 hPa East 6 km/h 27 km/h 59% 0.00 mm 0.00 W/m2 unknown
03:43 19.0 °C 11.0 °C 1017.6 hPa West 13 km/h 19 km/h 59% 0.00 mm 0.00 W/m2 unknown
03:49 19.0 °C 11.0 °C 1017.6 hPa NW 27 km/h 27 km/h 60% 0.00 mm 0.00 W/m2 unknown
03:54 19.0 °C 11.0 °C 1017.6 hPa WNW 39 km/h 39 km/h 59% 0.00 mm 0.00 W/m2 unknown
03:59 19.0 °C 11.0 °C 1017.6 hPa WNW 35 km/h 42 km/h 60% 0.00 mm 0.00 W/m2 unknown
04:04 19.0 °C 11.0 °C 1017.6 hPa WNW 26 km/h 42 km/h 60% 0.00 mm 0.00 W/m2 unknown
04:09 19.0 °C 11.0 °C 1017.3 hPa WNW 27 km/h 27 km/h 60% 0.00 mm 0.00 W/m2 unknown
04:14 19.0 °C 11.0 °C 1017.6 hPa NW 42 km/h 42 km/h 59% 0.00 mm 0.00 W/m2 unknown
04:18 19.0 °C 11.0 °C 1017.3 hPa WNW 39 km/h 42 km/h 59% 0.00 mm 0.00 W/m2 unknown
04:24 19.0 °C 11.0 °C 1016.9 hPa NW 31 km/h 39 km/h 59% 0.00 mm 0.00 W/m2 unknown
04:29 19.0 °C 11.0 °C 1016.9 hPa WNW 42 km/h 42 km/h 60% 0.00 mm 0.00 W/m2 unknown
04:34 19.0 °C 11.0 °C 1016.9 hPa WNW 45 km/h 55 km/h 60% 0.00 mm 0.00 W/m2 unknown
04:39 19.0 °C 11.0 °C 1016.9 hPa WNW 50 km/h 55 km/h 60% 0.00 mm 0.00 W/m2 unknown
04:44 19.0 °C 11.0 °C 1016.9 hPa WNW 42 km/h 56 km/h 60% 0.00 mm 0.00 W/m2 unknown
04:49 19.0 °C 11.0 °C 1016.9 hPa WNW 35 km/h 56 km/h 61% 0.00 mm 0.00 W/m2 unknown
04:54 19.0 °C 11.0 °C 1016.9 hPa WNW 42 km/h 42 km/h 61% 0.00 mm 0.00 W/m2 unknown
04:59 19.0 °C 11.0 °C 1016.9 hPa WNW 39 km/h 45 km/h 61% 0.00 mm 0.00 W/m2 unknown
05:04 19.0 °C 11.0 °C 1016.9 hPa WNW 45 km/h 45 km/h 61% 0.00 mm 0.00 W/m2 unknown
05:09 19.0 °C 11.0 °C 1016.9 hPa WNW 42 km/h 55 km/h 61% 0.00 mm 0.00 W/m2 unknown
05:14 19.0 °C 11.0 °C 1016.9 hPa WNW 39 km/h 45 km/h 62% 0.00 mm 0.00 W/m2 unknown
05:18 19.0 °C 11.0 °C 1016.6 hPa WNW 39 km/h 45 km/h 62% 0.00 mm 0.00 W/m2 unknown
05:24 19.0 °C 11.0 °C 1016.6 hPa WNW 35 km/h 45 km/h 62% 0.00 mm 0.00 W/m2 unknown
05:29 19.0 °C 11.0 °C 1016.9 hPa WNW 42 km/h 42 km/h 62% 0.00 mm 0.00 W/m2 unknown
05:34 19.0 °C 11.0 °C 1016.9 hPa WNW 35 km/h 42 km/h 62% 0.00 mm 0.00 W/m2 unknown
05:39 18.0 °C 11.0 °C 1016.9 hPa West 43 km/h 43 km/h 62% 0.00 mm 0.00 W/m2 unknown
05:43 18.0 °C 11.0 °C 1016.9 hPa WNW 34 km/h 43 km/h 63% 0.00 mm 0.00 W/m2 unknown
05:49 18.0 °C 11.0 °C 1016.9 hPa WNW 31 km/h 43 km/h 63% 0.00 mm 0.00 W/m2 unknown
05:54 18.0 °C 11.0 °C 1016.9 hPa WNW 32 km/h 34 km/h 63% 0.00 mm 0.00 W/m2 unknown
05:59 18.0 °C 11.0 °C 1016.9 hPa WNW 29 km/h 32 km/h 63% 0.00 mm 0.00 W/m2 unknown
06:04 18.0 °C 11.0 °C 1016.9 hPa WNW 35 km/h 35 km/h 63% 0.00 mm 0.00 W/m2 unknown
06:14 18.0 °C 11.0 °C 1016.9 hPa WNW 42 km/h 48 km/h 63% 0.00 mm 0.00 W/m2 unknown
06:18 18.0 °C 11.0 °C 1016.6 hPa WNW 40 km/h 42 km/h 63% 0.00 mm 0.00 W/m2 unknown
06:24 18.0 °C 11.0 °C 1016.6 hPa WNW 48 km/h 48 km/h 63% 0.00 mm 0.00 W/m2 unknown
06:29 18.0 °C 11.0 °C 1016.6 hPa WNW 37 km/h 48 km/h 63% 0.00 mm 0.00 W/m2 unknown
06:34 18.0 °C 11.0 °C 1016.6 hPa WNW 34 km/h 48 km/h 63% 0.00 mm 0.00 W/m2 unknown
06:39 18.0 °C 11.0 °C 1016.6 hPa WNW 53 km/h 53 km/h 63% 0.00 mm 0.00 W/m2 unknown
06:44 18.0 °C 11.0 °C 1016.9 hPa WNW 32 km/h 53 km/h 64% 0.00 mm 0.00 W/m2 unknown
06:49 18.0 °C 11.0 °C 1016.9 hPa WNW 32 km/h 53 km/h 64% 0.00 mm 0.00 W/m2 unknown
06:53 18.0 °C 11.0 °C 1016.9 hPa WNW 32 km/h 32 km/h 64% 0.00 mm 0.00 W/m2 unknown
06:59 18.0 °C 11.0 °C 1016.9 hPa WNW 40 km/h 40 km/h 64% 0.00 mm 0.00 W/m2 unknown
07:04 18.0 °C 12.0 °C 1016.9 hPa WNW 34 km/h 40 km/h 65% 0.00 mm 0.00 W/m2 unknown
07:09 18.0 °C 12.0 °C 1016.9 hPa WNW 26 km/h 40 km/h 65% 0.00 mm 0.00 W/m2 unknown
07:14 19.0 °C 12.0 °C 1017.3 hPa West 34 km/h 34 km/h 65% 0.00 mm 0.00 W/m2 unknown
07:18 19.0 °C 12.0 °C 1017.3 hPa WNW 32 km/h 34 km/h 65% 0.00 mm 0.00 W/m2 unknown
07:24 19.0 °C 12.0 °C 1016.9 hPa WNW 35 km/h 35 km/h 65% 0.00 mm 0.00 W/m2 unknown
07:29 19.0 °C 12.0 °C 1016.9 hPa WNW 31 km/h 48 km/h 65% 0.00 mm 0.00 W/m2 unknown
07:34 19.0 °C 12.0 °C 1017.3 hPa WNW 34 km/h 48 km/h 65% 0.00 mm 0.00 W/m2 unknown
07:39 19.0 °C 12.0 °C 1016.9 hPa WNW 50 km/h 50 km/h 65% 0.00 mm 0.00 W/m2 unknown
07:44 19.0 °C 12.0 °C 1016.9 hPa WNW 32 km/h 50 km/h 64% 0.00 mm 0.00 W/m2 unknown
07:49 19.0 °C 12.0 °C 1016.9 hPa WNW 34 km/h 50 km/h 64% 0.00 mm 0.00 W/m2 unknown
07:54 19.0 °C 12.0 °C 1016.9 hPa WNW 32 km/h 35 km/h 64% 0.00 mm 0.00 W/m2 unknown
07:59 19.0 °C 12.0 °C 1016.9 hPa NNW 23 km/h 47 km/h 64% 0.00 mm 0.00 W/m2 unknown
08:04 19.0 °C 12.0 °C 1016.9 hPa WNW 29 km/h 47 km/h 64% 0.00 mm 0.00 W/m2 unknown
08:09 19.0 °C 12.0 °C 1016.6 hPa WNW 24 km/h 29 km/h 64% 0.00 mm 0.00 W/m2 unknown
08:14 19.0 °C 12.0 °C 1016.6 hPa WNW 19 km/h 29 km/h 64% 0.00 mm 0.00 W/m2 unknown
08:19 19.0 °C 12.0 °C 1016.6 hPa WNW 19 km/h 37 km/h 64% 0.00 mm 0.00 W/m2 unknown
08:24 20.0 °C 13.0 °C 1016.9 hPa NW 29 km/h 37 km/h 64% 0.00 mm 0.00 W/m2 unknown
08:29 20.0 °C 13.0 °C 1016.9 hPa NNW 23 km/h 29 km/h 63% 0.00 mm 0.00 W/m2 unknown
08:34 20.0 °C 13.0 °C 1016.9 hPa NW 21 km/h 26 km/h 63% 0.00 mm 0.00 W/m2 unknown
08:39 20.0 °C 13.0 °C 1016.9 hPa NW 16 km/h 26 km/h 63% 0.00 mm 0.00 W/m2 unknown
08:43 20.0 °C 13.0 °C 1016.9 hPa NNW 40 km/h 40 km/h 63% 0.00 mm 0.00 W/m2 unknown
08:49 20.0 °C 13.0 °C 1016.9 hPa NW 21 km/h 40 km/h 63% 0.00 mm 0.00 W/m2 unknown
08:54 20.0 °C 13.0 °C 1016.9 hPa NNW 18 km/h 40 km/h 63% 0.00 mm 0.00 W/m2 unknown
08:59 20.0 °C 13.0 °C 1016.9 hPa NNW 19 km/h 21 km/h 64% 0.00 mm 0.00 W/m2 unknown
09:04 20.0 °C 13.0 °C 1016.9 hPa NW 13 km/h 19 km/h 63% 0.00 mm 0.00 W/m2 unknown
09:09 20.0 °C 13.0 °C 1016.9 hPa NNW 31 km/h 31 km/h 63% 0.00 mm 0.00 W/m2 unknown
09:14 20.0 °C 13.0 °C 1016.9 hPa NW 29 km/h 31 km/h 63% 0.00 mm 0.00 W/m2 unknown
09:19 20.0 °C 13.0 °C 1016.6 hPa SSW 21 km/h 31 km/h 63% 0.00 mm 0.00 W/m2 unknown
09:24 21.0 °C 13.0 °C 1016.6 hPa NNW 26 km/h 26 km/h 63% 0.00 mm 0.00 W/m2 unknown
09:29 21.0 °C 13.0 °C 1016.6 hPa NNW 37 km/h 37 km/h 63% 0.00 mm 0.00 W/m2 unknown
09:34 21.0 °C 13.0 °C 1016.3 hPa North 34 km/h 40 km/h 63% 0.00 mm 0.00 W/m2 unknown
09:39 21.0 °C 13.0 °C 1016.3 hPa North 43 km/h 43 km/h 62% 0.00 mm 0.00 W/m2 unknown
09:43 21.0 °C 13.0 °C 1016.3 hPa NNW 43 km/h 43 km/h 63% 0.00 mm 0.00 W/m2 unknown
09:49 21.0 °C 13.0 °C 1016.3 hPa North 56 km/h 56 km/h 62% 0.00 mm 0.00 W/m2 unknown
09:54 21.0 °C 13.0 °C 1016.3 hPa North 43 km/h 56 km/h 63% 0.00 mm 0.00 W/m2 unknown
09:59 21.0 °C 14.0 °C 1015.9 hPa NNW 35 km/h 53 km/h 62% 0.00 mm 0.00 W/m2 unknown
10:04 21.0 °C 14.0 °C 1015.9 hPa North 34 km/h 43 km/h 62% 0.00 mm 0.00 W/m2 unknown
10:09 21.0 °C 14.0 °C 1015.9 hPa North 42 km/h 42 km/h 61% 0.00 mm 0.00 W/m2 unknown
10:14 22.0 °C 14.0 °C 1016.3 hPa NNW 29 km/h 42 km/h 61% 0.00 mm 0.00 W/m2 unknown
10:19 22.0 °C 14.0 °C 1016.3 hPa NNW 35 km/h 42 km/h 60% 0.00 mm 0.00 W/m2 unknown
10:23 22.0 °C 14.0 °C 1016.3 hPa North 45 km/h 45 km/h 60% 0.00 mm 0.00 W/m2 unknown
10:29 22.0 °C 14.0 °C 1016.6 hPa North 32 km/h 45 km/h 60% 0.00 mm 0.00 W/m2 unknown
10:34 22.0 °C 14.0 °C 1016.6 hPa North 35 km/h 47 km/h 60% 0.00 mm 0.00 W/m2 unknown
10:39 22.0 °C 14.0 °C 1016.6 hPa NNE 31 km/h 35 km/h 60% 0.00 mm 0.00 W/m2 unknown
10:44 23.0 °C 14.0 °C 1016.6 hPa North 35 km/h 37 km/h 59% 0.00 mm 0.00 W/m2 unknown
10:49 23.0 °C 14.0 °C 1016.3 hPa North 32 km/h 37 km/h 58% 0.00 mm 0.00 W/m2 unknown
10:54 23.0 °C 14.0 °C 1016.3 hPa North 34 km/h 40 km/h 58% 0.00 mm 0.00 W/m2 unknown
10:59 23.0 °C 14.0 °C 1016.3 hPa NNE 34 km/h 40 km/h 58% 0.00 mm 0.00 W/m2 unknown
11:04 23.0 °C 14.0 °C 1016.6 hPa NNW 29 km/h 29 km/h 57% 0.00 mm 0.00 W/m2 unknown
11:09 23.0 °C 14.0 °C 1016.6 hPa North 24 km/h 34 km/h 57% 0.00 mm 0.00 W/m2 unknown
11:14 23.0 °C 14.0 °C 1016.6 hPa NNW 31 km/h 34 km/h 57% 0.00 mm 0.00 W/m2 unknown
11:19 23.0 °C 14.0 °C 1016.6 hPa NNW 31 km/h 32 km/h 56% 0.00 mm 0.00 W/m2 unknown
11:24 24.0 °C 14.0 °C 1016.6 hPa North 24 km/h 32 km/h 56% 0.00 mm 0.00 W/m2 unknown
11:29 24.0 °C 14.0 °C 1016.6 hPa WNW 21 km/h 27 km/h 56% 0.00 mm 0.00 W/m2 unknown
11:34 24.0 °C 14.0 °C 1016.6 hPa NW 18 km/h 24 km/h 55% 0.00 mm 0.00 W/m2 unknown
11:39 24.0 °C 14.0 °C 1016.6 hPa NNW 31 km/h 31 km/h 55% 0.00 mm 0.00 W/m2 unknown
11:44 24.0 °C 14.0 °C 1016.6 hPa WNW 29 km/h 31 km/h 55% 0.00 mm 0.00 W/m2 unknown
11:49 24.0 °C 14.0 °C 1016.6 hPa WNW 26 km/h 31 km/h 55% 0.00 mm 0.00 W/m2 unknown
11:54 24.0 °C 14.0 °C 1016.6 hPa WNW 24 km/h 29 km/h 55% 0.00 mm 0.00 W/m2 unknown
11:59 24.0 °C 14.0 °C 1016.6 hPa WNW 27 km/h 27 km/h 55% 0.00 mm 0.00 W/m2 unknown
12:04 24.0 °C 14.0 °C 1016.6 hPa North 32 km/h 32 km/h 54% 0.00 mm 0.00 W/m2 unknown
12:05 24.0 °C 14.0 °C 1016.6 hPa West 14 km/h 37 km/h 54% 0.00 mm 0.00 W/m2 unknown
12:14 24.0 °C 14.0 °C 1016.6 hPa WNW 24 km/h 37 km/h 54% 0.00 mm 0.00 W/m2 unknown
12:19 24.0 °C 14.0 °C 1016.6 hPa WNW 29 km/h 29 km/h 54% 0.00 mm 0.00 W/m2 unknown
12:24 24.0 °C 15.0 °C 1016.9 hPa WNW 32 km/h 32 km/h 55% 0.00 mm 0.00 W/m2 unknown
12:28 24.0 °C 14.0 °C 1016.9 hPa WNW 31 km/h 34 km/h 55% 0.00 mm 0.00 W/m2 unknown
12:34 24.0 °C 14.0 °C 1016.9 hPa WNW 35 km/h 35 km/h 55% 0.00 mm 0.00 W/m2 unknown
12:39 24.0 °C 14.0 °C 1016.9 hPa WNW 39 km/h 39 km/h 55% 0.00 mm 0.00 W/m2 unknown
12:44 24.0 °C 15.0 °C 1016.9 hPa WNW 24 km/h 39 km/h 55% 0.00 mm 0.00 W/m2 unknown
12:49 24.0 °C 14.0 °C 1016.9 hPa NW 24 km/h 31 km/h 54% 0.00 mm 0.00 W/m2 unknown
12:54 25.0 °C 15.0 °C 1016.9 hPa NNW 32 km/h 32 km/h 54% 0.00 mm 0.00 W/m2 unknown
12:59 25.0 °C 15.0 °C 1016.9 hPa NW 26 km/h 37 km/h 54% 0.00 mm 0.00 W/m2 unknown
13:04 25.0 °C 15.0 °C 1016.9 hPa WNW 32 km/h 37 km/h 54% 0.00 mm 0.00 W/m2 unknown
13:09 24.0 °C 14.0 °C 1016.9 hPa WNW 29 km/h 32 km/h 55% 0.00 mm 0.00 W/m2 unknown
13:14 24.0 °C 14.0 °C 1016.9 hPa WNW 24 km/h 32 km/h 55% 0.00 mm 0.00 W/m2 unknown
13:19 25.0 °C 15.0 °C 1016.6 hPa West 31 km/h 31 km/h 55% 0.00 mm 0.00 W/m2 unknown
13:24 24.0 °C 14.0 °C 1016.6 hPa WNW 21 km/h 21 km/h 54% 0.00 mm 0.00 W/m2 unknown
13:29 25.0 °C 15.0 °C 1016.6 hPa WNW 24 km/h 34 km/h 54% 0.00 mm 0.00 W/m2 unknown
13:34 25.0 °C 15.0 °C 1016.6 hPa WNW 31 km/h 31 km/h 54% 0.00 mm 0.00 W/m2 unknown
13:39 24.0 °C 14.0 °C 1016.6 hPa NW 23 km/h 31 km/h 54% 0.00 mm 0.00 W/m2 unknown
13:44 25.0 °C 15.0 °C 1016.6 hPa WNW 23 km/h 31 km/h 54% 0.00 mm 0.00 W/m2 unknown
13:48 24.0 °C 15.0 °C 1016.3 hPa WNW 23 km/h 31 km/h 54% 0.00 mm 0.00 W/m2 unknown
13:54 25.0 °C 15.0 °C 1016.3 hPa NW 19 km/h 24 km/h 54% 0.00 mm 0.00 W/m2 unknown
13:59 25.0 °C 15.0 °C 1016.3 hPa WNW 18 km/h 23 km/h 53% 0.00 mm 0.00 W/m2 unknown
14:04 25.0 °C 15.0 °C 1016.3 hPa WNW 23 km/h 23 km/h 52% 0.00 mm 0.00 W/m2 unknown
14:09 25.0 °C 15.0 °C 1016.3 hPa West 13 km/h 23 km/h 53% 0.00 mm 0.00 W/m2 unknown
14:14 25.0 °C 15.0 °C 1016.3 hPa NW 24 km/h 24 km/h 54% 0.00 mm 0.00 W/m2 unknown
14:19 25.0 °C 15.0 °C 1016.3 hPa WNW 23 km/h 24 km/h 53% 0.00 mm 0.00 W/m2 unknown
14:24 25.0 °C 15.0 °C 1016.3 hPa WNW 14 km/h 24 km/h 54% 0.00 mm 0.00 W/m2 unknown
14:29 25.0 °C 15.0 °C 1015.9 hPa West 13 km/h 19 km/h 54% 0.00 mm 0.00 W/m2 unknown
14:34 25.0 °C 15.0 °C 1015.9 hPa NW 10 km/h 14 km/h 54% 0.00 mm 0.00 W/m2 unknown
14:39 25.0 °C 15.0 °C 1015.9 hPa NW 11 km/h 11 km/h 53% 0.00 mm 0.00 W/m2 unknown
14:44 25.0 °C 15.0 °C 1015.9 hPa NW 24 km/h 24 km/h 53% 0.00 mm 0.00 W/m2 unknown
14:49 25.0 °C 15.0 °C 1015.9 hPa NNW 19 km/h 24 km/h 53% 0.00 mm 0.00 W/m2 unknown
14:53 25.0 °C 15.0 °C 1015.9 hPa NW 23 km/h 23 km/h 54% 0.00 mm 0.00 W/m2 unknown
14:59 25.0 °C 15.0 °C 1015.6 hPa NNW 29 km/h 31 km/h 53% 0.00 mm 0.00 W/m2 unknown
15:04 25.0 °C 15.0 °C 1015.6 hPa NW 24 km/h 31 km/h 53% 0.00 mm 0.00 W/m2 unknown
15:09 25.0 °C 15.0 °C 1015.6 hPa NW 19 km/h 26 km/h 53% 0.00 mm 0.00 W/m2 unknown
15:14 25.0 °C 15.0 °C 1015.6 hPa NNW 16 km/h 23 km/h 53% 0.00 mm 0.00 W/m2 unknown
15:18 26.0 °C 15.0 °C 1015.6 hPa NW 16 km/h 21 km/h 53% 0.00 mm 0.00 W/m2 unknown
15:24 25.0 °C 15.0 °C 1015.2 hPa NNW 23 km/h 23 km/h 53% 0.00 mm 0.00 W/m2 unknown
15:29 26.0 °C 15.0 °C 1015.6 hPa NNE 31 km/h 31 km/h 53% 0.00 mm 0.00 W/m2 unknown
15:34 26.0 °C 15.0 °C 1015.2 hPa NNW 26 km/h 31 km/h 52% 0.00 mm 0.00 W/m2 unknown
15:39 26.0 °C 15.0 °C 1015.6 hPa NW 21 km/h 31 km/h 53% 0.00 mm 0.00 W/m2 unknown
15:44 26.0 °C 15.0 °C 1015.2 hPa North 19 km/h 32 km/h 52% 0.00 mm 0.00 W/m2 unknown
15:49 26.0 °C 16.0 °C 1015.2 hPa NW 19 km/h 32 km/h 52% 0.00 mm 0.00 W/m2 unknown
15:53 26.0 °C 15.0 °C 1015.2 hPa North 32 km/h 32 km/h 51% 0.00 mm 0.00 W/m2 unknown
15:59 26.0 °C 15.0 °C 1015.2 hPa NNW 34 km/h 34 km/h 51% 0.00 mm 0.00 W/m2 unknown
16:04 26.0 °C 16.0 °C 1015.2 hPa NE 11 km/h 43 km/h 54% 0.00 mm 0.00 W/m2 unknown
16:09 25.0 °C 16.0 °C 1015.2 hPa SSE 10 km/h 43 km/h 55% 0.00 mm 0.00 W/m2 unknown
16:14 25.0 °C 16.0 °C 1015.2 hPa South 16 km/h 16 km/h 58% 0.00 mm 0.00 W/m2 unknown
16:19 25.0 °C 16.0 °C 1015.2 hPa SSE 13 km/h 19 km/h 59% 0.00 mm 0.00 W/m2 unknown
16:24 24.0 °C 16.0 °C 1015.2 hPa SSE 14 km/h 19 km/h 60% 0.00 mm 0.00 W/m2 unknown
16:29 24.0 °C 16.0 °C 1015.2 hPa SE 11 km/h 14 km/h 61% 0.00 mm 0.00 W/m2 unknown
16:34 24.0 °C 16.0 °C 1015.2 hPa SE 11 km/h 11 km/h 61% 0.00 mm 0.00 W/m2 unknown
16:39 24.0 °C 16.0 °C 1014.9 hPa ESE 10 km/h 11 km/h 61% 0.00 mm 0.00 W/m2 unknown
16:44 24.0 °C 16.0 °C 1014.9 hPa South 11 km/h 11 km/h 61% 0.00 mm 0.00 W/m2 unknown
16:49 24.0 °C 16.0 °C 1014.9 hPa SE 13 km/h 14 km/h 61% 0.00 mm 0.00 W/m2 unknown
16:54 24.0 °C 16.0 °C 1014.9 hPa ESE 11 km/h 14 km/h 61% 0.00 mm 0.00 W/m2 unknown
16:59 24.0 °C 16.0 °C 1014.9 hPa ESE 14 km/h 14 km/h 61% 0.00 mm 0.00 W/m2 unknown
17:03 25.0 °C 16.0 °C 1014.9 hPa SSE 10 km/h 14 km/h 60% 0.00 mm 0.00 W/m2 unknown
17:09 25.0 °C 17.0 °C 1014.6 hPa South 13 km/h 14 km/h 60% 0.00 mm 0.00 W/m2 unknown
17:14 25.0 °C 17.0 °C 1014.6 hPa SSE 14 km/h 14 km/h 60% 0.00 mm 0.00 W/m2 unknown
17:19 25.0 °C 16.0 °C 1014.6 hPa SSW 6 km/h 14 km/h 59% 0.00 mm 0.00 W/m2 unknown
17:24 26.0 °C 17.0 °C 1014.6 hPa SSW 10 km/h 14 km/h 58% 0.00 mm 0.00 W/m2 unknown
17:29 26.0 °C 17.0 °C 1014.6 hPa ESE 14 km/h 14 km/h 60% 0.00 mm 0.00 W/m2 unknown
17:34 25.0 °C 17.0 °C 1014.6 hPa ENE 11 km/h 11 km/h 61% 0.00 mm 0.00 W/m2 unknown
17:38 24.0 °C 17.0 °C 1014.6 hPa East 14 km/h 14 km/h 62% 0.00 mm 0.00 W/m2 unknown
17:44 24.0 °C 17.0 °C 1014.6 hPa East 21 km/h 21 km/h 62% 0.00 mm 0.00 W/m2 unknown
17:49 24.0 °C 17.0 °C 1014.6 hPa East 16 km/h 21 km/h 63% 0.00 mm 0.00 W/m2 unknown
17:54 24.0 °C 17.0 °C 1014.6 hPa East 14 km/h 21 km/h 63% 0.00 mm 0.00 W/m2 unknown
17:59 24.0 °C 16.0 °C 1014.6 hPa East 11 km/h 14 km/h 63% 0.00 mm 0.00 W/m2 unknown
18:04 24.0 °C 16.0 °C 1014.6 hPa East 8 km/h 13 km/h 64% 0.00 mm 0.00 W/m2 unknown
18:05 24.0 °C 17.0 °C 1014.6 hPa East 5 km/h 11 km/h 64% 0.00 mm 0.00 W/m2 unknown
18:14 24.0 °C 17.0 °C 1014.6 hPa East 11 km/h 16 km/h 64% 0.00 mm 0.00 W/m2 unknown
18:19 24.0 °C 17.0 °C 1014.6 hPa East 5 km/h 14 km/h 64% 0.00 mm 0.00 W/m2 unknown
18:24 24.0 °C 17.0 °C 1014.6 hPa ESE 8 km/h 11 km/h 64% 0.00 mm 0.00 W/m2 unknown
18:29 24.0 °C 17.0 °C 1014.6 hPa East 10 km/h 10 km/h 63% 0.00 mm 0.00 W/m2 unknown
18:34 24.0 °C 17.0 °C 1014.2 hPa East 5 km/h 10 km/h 64% 0.00 mm 0.00 W/m2 unknown
18:39 24.0 °C 17.0 °C 1014.2 hPa East 8 km/h 10 km/h 65% 0.00 mm 0.00 W/m2 unknown
18:44 24.0 °C 17.0 °C 1014.2 hPa East 13 km/h 13 km/h 65% 0.00 mm 0.00 W/m2 unknown
18:49 24.0 °C 17.0 °C 1014.6 hPa East 11 km/h 13 km/h 65% 0.00 mm 0.00 W/m2 unknown
18:54 24.0 °C 17.0 °C 1014.6 hPa East 13 km/h 13 km/h 65% 0.00 mm 0.00 W/m2 unknown
18:59 24.0 °C 17.0 °C 1014.6 hPa ENE 11 km/h 14 km/h 66% 0.00 mm 0.00 W/m2 unknown
19:04 23.0 °C 17.0 °C 1014.6 hPa ENE 16 km/h 16 km/h 67% 0.00 mm 0.00 W/m2 unknown
19:09 23.0 °C 17.0 °C 1014.6 hPa ENE 10 km/h 18 km/h 67% 0.00 mm 0.00 W/m2 unknown
19:14 23.0 °C 17.0 °C 1014.6 hPa East 14 km/h 18 km/h 68% 0.00 mm 0.00 W/m2 unknown
19:19 23.0 °C 17.0 °C 1014.6 hPa East 16 km/h 16 km/h 68% 0.00 mm 0.00 W/m2 unknown
19:24 23.0 °C 17.0 °C 1014.6 hPa East 10 km/h 16 km/h 69% 0.00 mm 0.00 W/m2 unknown
19:29 23.0 °C 17.0 °C 1014.6 hPa East 10 km/h 13 km/h 70% 0.00 mm 0.00 W/m2 unknown
19:33 22.0 °C 17.0 °C 1014.6 hPa ENE 10 km/h 10 km/h 71% 0.00 mm 0.00 W/m2 unknown
19:39 22.0 °C 16.0 °C 1014.6 hPa ENE 11 km/h 11 km/h 71% 0.00 mm 0.00 W/m2 unknown
19:44 22.0 °C 16.0 °C 1014.6 hPa ENE 6 km/h 11 km/h 71% 0.00 mm 0.00 W/m2 unknown
19:49 22.0 °C 17.0 °C 1014.6 hPa ENE 8 km/h 11 km/h 71% 0.00 mm 0.00 W/m2 unknown
19:54 22.0 °C 17.0 °C 1014.6 hPa ENE 6 km/h 8 km/h 71% 0.00 mm 0.00 W/m2 unknown
19:59 22.0 °C 17.0 °C 1014.6 hPa ENE 6 km/h 8 km/h 71% 0.00 mm 0.00 W/m2 unknown
20:04 22.0 °C 17.0 °C 1014.6 hPa ENE 5 km/h 8 km/h 71% 0.00 mm 0.00 W/m2 unknown
20:09 22.0 °C 17.0 °C 1014.9 hPa ENE 5 km/h 8 km/h 71% 0.00 mm 0.00 W/m2 unknown
20:14 22.0 °C 17.0 °C 1014.9 hPa ENE 6 km/h 10 km/h 72% 0.00 mm 0.00 W/m2 unknown
20:19 22.0 °C 16.0 °C 1014.9 hPa ENE 8 km/h 10 km/h 73% 0.00 mm 0.00 W/m2 unknown
20:23 21.0 °C 16.0 °C 1014.9 hPa ENE 6 km/h 10 km/h 73% 0.00 mm 0.00 W/m2 unknown
20:29 21.0 °C 16.0 °C 1014.9 hPa NE 8 km/h 10 km/h 74% 0.00 mm 0.00 W/m2 unknown
20:34 21.0 °C 16.0 °C 1014.9 hPa East 5 km/h 8 km/h 74% 0.00 mm 0.00 W/m2 unknown
20:39 21.0 °C 16.0 °C 1015.2 hPa SSE 5 km/h 8 km/h 74% 0.00 mm 0.00 W/m2 unknown
20:44 21.0 °C 16.0 °C 1015.2 hPa ENE 6 km/h 6 km/h 74% 0.00 mm 0.00 W/m2 unknown
20:49 21.0 °C 16.0 °C 1015.2 hPa ENE 8 km/h 8 km/h 74% 0.00 mm 0.00 W/m2 unknown
20:54 21.0 °C 16.0 °C 1015.2 hPa East 3 km/h 8 km/h 74% 0.00 mm 0.00 W/m2 unknown
20:58 21.0 °C 16.0 °C 1015.2 hPa East 3 km/h 8 km/h 75% 0.00 mm 0.00 W/m2 unknown
21:04 21.0 °C 16.0 °C 1015.2 hPa ESE 5 km/h 5 km/h 76% 0.00 mm 0.00 W/m2 unknown
21:09 21.0 °C 16.0 °C 1015.2 hPa ESE 5 km/h 5 km/h 77% 0.00 mm 0.00 W/m2 unknown
21:14 21.0 °C 17.0 °C 1015.2 hPa SE 3 km/h 5 km/h 78% 0.00 mm 0.00 W/m2 unknown
21:19 20.0 °C 17.0 °C 1015.2 hPa SE 2 km/h 5 km/h 78% 0.00 mm 0.00 W/m2 unknown
21:24 20.0 °C 16.0 °C 1015.2 hPa SE 3 km/h 3 km/h 79% 0.00 mm 0.00 W/m2 unknown
21:29 20.0 °C 17.0 °C 1015.2 hPa South 5 km/h 5 km/h 79% 0.00 mm 0.00 W/m2 unknown
21:33 20.0 °C 16.0 °C 1015.2 hPa Calm   5 km/h 79% 0.00 mm 0.00 W/m2 unknown
21:39 20.0 °C 16.0 °C 1015.6 hPa Calm   3 km/h 80% 0.00 mm 0.00 W/m2 unknown
21:44 20.0 °C 16.0 °C 1015.9 hPa Calm   2 km/h 80% 0.00 mm 0.00 W/m2 unknown
21:49 20.0 °C 16.0 °C 1015.9 hPa ESE 5 km/h 5 km/h 81% 0.00 mm 0.00 W/m2 unknown
21:54 19.0 °C 16.0 °C 1015.9 hPa NE 5 km/h 5 km/h 81% 0.00 mm 0.00 W/m2 unknown
21:59 19.0 °C 16.0 °C 1015.9 hPa NE 3 km/h 5 km/h 82% 0.00 mm 0.00 W/m2 unknown
22:04 19.0 °C 16.0 °C 1015.9 hPa NE 3 km/h 5 km/h 82% 0.00 mm 0.00 W/m2 unknown
22:09 19.0 °C 16.0 °C 1016.3 hPa NE 2 km/h 3 km/h 82% 0.00 mm 0.00 W/m2 unknown
22:14 19.0 °C 16.0 °C 1016.3 hPa NW 5 km/h 5 km/h 82% 0.00 mm 0.00 W/m2 unknown
22:19 19.0 °C 16.0 °C 1016.3 hPa WNW 5 km/h 5 km/h 83% 0.00 mm 0.00 W/m2 unknown
22:24 19.0 °C 16.0 °C 1016.3 hPa WNW 5 km/h 5 km/h 83% 0.00 mm 0.00 W/m2 unknown
22:29 18.0 °C 16.0 °C 1016.3 hPa WNW 5 km/h 5 km/h 84% 0.00 mm 0.00 W/m2 unknown
22:34 18.0 °C 16.0 °C 1016.6 hPa WNW 3 km/h 5 km/h 84% 0.00 mm 0.00 W/m2 unknown
22:39 18.0 °C 16.0 °C 1016.6 hPa Calm   3 km/h 84% 0.00 mm 0.00 W/m2 unknown
22:44 18.0 °C 16.0 °C 1016.6 hPa Calm   2 km/h 84% 0.00 mm 0.00 W/m2 unknown
22:49 18.0 °C 15.0 °C 1016.6 hPa Calm     84% 0.00 mm 0.00 W/m2 unknown
22:54 18.0 °C 15.0 °C 1016.9 hPa NE 11 km/h 11 km/h 84% 0.00 mm 0.00 W/m2 unknown
22:59 18.0 °C 16.0 °C 1016.9 hPa NNE 11 km/h 11 km/h 84% 0.00 mm 0.00 W/m2 unknown
23:04 18.0 °C 16.0 °C 1016.9 hPa NE 10 km/h 14 km/h 83% 0.00 mm 0.00 W/m2 unknown
23:09 18.0 °C 16.0 °C 1016.9 hPa ENE 3 km/h 11 km/h 83% 0.00 mm 0.00 W/m2 unknown
23:14 18.0 °C 16.0 °C 1016.9 hPa NNE 5 km/h 10 km/h 83% 0.00 mm 0.00 W/m2 unknown
23:19 18.0 °C 16.0 °C 1016.9 hPa NNE 11 km/h 11 km/h 83% 0.00 mm 0.00 W/m2 unknown
23:24 18.0 °C 15.0 °C 1016.9 hPa NE 11 km/h 13 km/h 84% 0.00 mm 0.00 W/m2 unknown
23:29 18.0 °C 15.0 °C 1016.6 hPa NE 13 km/h 13 km/h 85% 0.00 mm 0.00 W/m2 unknown
23:34 18.0 °C 16.0 °C 1016.9 hPa NE 18 km/h 18 km/h 85% 0.00 mm 0.00 W/m2 unknown
23:39 18.0 °C 16.0 °C 1016.9 hPa NNE 14 km/h 18 km/h 86% 0.00 mm 0.00 W/m2 unknown
23:43 18.0 °C 16.0 °C 1016.9 hPa NW 14 km/h 16 km/h 86% 0.00 mm 0.00 W/m2 unknown
23:49 18.0 °C 16.0 °C 1016.9 hPa NW 6 km/h 16 km/h 85% 0.00 mm 0.00 W/m2 unknown
23:50 18.0 °C 16.0 °C 1016.9 hPa Calm   11 km/h 85% 0.00 mm 0.00 W/m2 unknown
23:55 18.0 °C 16.0 °C 1016.9 hPa SW 3 km/h 5 km/h 85% 0.00 mm 0.00 W/m2 unknown
Datos historicos para Xert